[[{"header":{"parameterUnit":"m.s-1","parameterCategory":2,"la1":30.2991,"la2":30.254,"lo1":-89.0895,"lo2":-89.0444,"dy":0.0017,"dx":0.0017,"nx":28,"ny":28,"refTime":"2025-03-24T21:00:00:Z","depth":"0","parameterNumber":2,"parameterNumberName":"U-component_of_CURRENTS"},"data":[0,0,0,0,0,0,0,0,0,0,0,0,0,0,0,0,0,0,0,0,0,0,0,0,0,0,0,0,0,0,0,0,0,0,0,0,0,0,0,0,0,0,0,0,0,0,0,0,0,0,0,0,0,0,0,0,0,0,0.3928,0.3929,0,0.3986,0.3986,0.3986,0.402,0.4021,0.4022,0.4023,0.3978,0.3976,0.3974,0,0,0,0,0,0,0,0,0,0,0,0,0,0.3846,0.3847,0.3928,0.3929,0.3931,0.3986,0.3986,0.3986,0.402,0.4021,0.4023,0.4024,0.3979,0.3976,0.3974,0,0,0,0,0,0,0,0,0,0,0,0,0,0.3882,0.3847,0.3927,0.3961,0.3965,0.3986,0.3986,0.3986,0.402,0.4021,0.4023,0.4024,0.398,0.3977,0.3974,0.3926,0,0,0.3964,0.3963,0,0,0,0,0,0,0,0,0.388,0.3884,0.3954,0.3959,0.3963,0.4005,0.3942,0.3964,0.402,0.399,0.4023,0.4025,0.3982,0.3979,0.3976,0.3924,0.3922,0.3964,0.3962,0.3961,0.396,0,0,0,0,0,0,0,0.3878,0.3882,0.3942,0.3956,0.3962,0.3974,0.3979,0.3946,0.3969,0.3993,0.3997,0.4017,0.3983,0.3979,0.3975,0.3921,0.3964,0.3961,0.3959,0.3958,0.3965,0.3967,0,0,0,0,0,0,0.3886,0.388,0.394,0.3945,0.3934,0.3975,0.3981,0.3983,0.3971,0.3975,0.4016,0.4019,0.3983,0.3979,0.3973,0.4005,0.3961,0.3958,0.3956,0.3963,0.3966,0.3968,0,0,0,0,0,0,0.3884,0.389,0.3938,0.3921,0.393,0.3976,0.3977,0.3984,0.3992,0.3992,0.3992,0.4021,0.3984,0.3978,0.3977,0.4001,0.3956,0.3953,0.3961,0.3964,0.3967,0.4012,0,0,0,0,0,0,0.3881,0.3888,0.3878,0.3921,0.3931,0.3949,0.3977,0.3984,0.4006,0.401,0.3995,0.3992,0.3985,0.3983,0.3974,0.3995,0.3951,0.3958,0.3962,0.3966,0.4008,0.4016,0.4023,0,0,0,0,0,0.3877,0.3859,0.3877,0.3885,0.392,0.395,0.3954,0.3986,0.4005,0.3999,0.4016,0.3993,0.4003,0.3981,0.3971,0.3992,0.3956,0.3961,0.3966,0.4004,0.4014,0.4023,0,0,0,0,0,0,0.3805,0.3864,0.3883,0.388,0.3915,0.3959,0.3955,0.3985,0.3992,0.3996,0.3998,0.3996,0.4012,0.3995,0.3972,0.4013,0.3983,0.3986,0.4016,0.4025,0.4033,0.4052,0.3948,0,0,0,0,0,0.3789,0.3805,0.3854,0.3856,0.3864,0.3909,0.3922,0.3952,0.3976,0.3981,0.3984,0.3997,0.4019,0.4017,0.4018,0.4015,0.4038,0.4033,0.4041,0.4047,0.4061,0.41,0.4113,0.3983,0.3983,0.3983,0,0,0.3769,0.3802,0.3812,0.3844,0.3866,0.3902,0.3917,0.3939,0.3986,0.397,0.4005,0.401,0.4026,0.4049,0.4054,0.4037,0.4106,0.4053,0.4058,0.4069,0.4107,0.4119,0.413,0.3986,0.3986,0.3985,0,0,0.3748,0.3755,0.3764,0.3797,0.3844,0.388,0.3891,0.3934,0.3959,0.3993,0.4019,0.4044,0.4049,0.4084,0.4102,0.4147,0.4146,0.4148,0.4193,0.4231,0.4242,0.4251,0.4334,0.435,0.415,0.415,0.415,0,0.3721,0.3746,0.3768,0.3795,0.3839,0.3877,0.3914,0.3944,0.3992,0.4022,0.4011,0.408,0.4078,0.4148,0.418,0.4163,0.4198,0.415,0.424,0.4249,0.4258,0.434,0.4358,0.4153,0.4153,0.4152,0.4152,0,0.3725,0.3748,0.3752,0.3817,0.3856,0.3887,0.3954,0.3987,0.4026,0.4068,0.4126,0.4135,0.4182,0.4192,0.42,0.4273,0.4286,0.4243,0.421,0.4274,0.4357,0.4375,0.4157,0.4156,0.4155,0.4154,0,0,0.3667,0.3743,0.3746,0.3791,0.3877,0.3912,0.399,0.4071,0.4122,0.4158,0.4226,0.4276,0.4275,0.4298,0.4304,0.4341,0.4442,0.4323,0.4324,0.4398,0.4568,0.4609,0.4632,0.4406,0.4409,0.441,0.4615,0,0.3668,0.3726,0.3773,0.3851,0.3893,0.3972,0.4041,0.4123,0.4176,0.4236,0.4278,0.4322,0.4318,0.4331,0.4376,0.4411,0.4484,0.4394,0.4503,0.4508,0.4528,0.4651,0.4392,0.4554,0.4631,0.4634,0.4636,0,0.3658,0.3712,0.378,0.3892,0.3912,0.3969,0.4096,0.4157,0.4257,0.429,0.4353,0.4377,0.4462,0.4421,0.4556,0.4496,0.4555,0.4584,0.4591,0.4623,0.458,0.4498,0.4582,0.4408,0.4663,0.4661,0.4659,0,0.3626,0.3716,0.3778,0.382,0.3944,0.3996,0.4061,0.4169,0.4248,0.4314,0.4379,0.4447,0.4513,0.4565,0.4676,0.4605,0.4833,0.4727,0.4841,0.4846,0.4646,0.463,0.4561,0.4846,0.4845,0.4845,0.4844,0,0.3622,0.3669,0.3764,0.3805,0.3898,0.3971,0.4066,0.4136,0.4248,0.4332,0.4392,0.4489,0.4551,0.4696,0.4731,0.4889,0.4892,0.4898,0.4909,0.4662,0.4645,0.4499,0.4448,0.4852,0.4851,0.4849,0.4848,0,0.3591,0.364,0.3728,0.3847,0.3888,0.3952,0.4103,0.4169,0.4259,0.4376,0.4409,0.4577,0.4727,0.4852,0.4977,0.5,0.4958,0.5162,0.491,0.4887,0.475,0.4713,0.4613,0.4484,0.5262,0.5265,0.5267,0,0.3587,0.3626,0.376,0.3819,0.3876,0.3977,0.4053,0.4165,0.4241,0.4429,0.4492,0.4701,0.4844,0.5112,0.5143,0.5267,0.5081,0.5121,0.4923,0.4762,0.4726,0.4547,0.4429,0.4689,0.4686,0.4684,0.4682,0,0.3614,0.3652,0.3735,0.3853,0.3936,0.4017,0.4119,0.4196,0.4307,0.4433,0.459,0.4721,0.4956,0.4972,0.518,0.5191,0.4824,0.5079,0.4927,0.432,0.4098,0.397,0.4584,0.4661,0.4663,0.4664,0.4665,0.4666,0.3643,0.3708,0.3809,0.3908,0.3988,0.4034,0.4044,0.4163,0.4288,0.4375,0.4567,0.4656,0.473,0.4959,0.4973,0.4759,0.4774,0.4532,0.4526,0.4379,0.4158,0.4795,0.4872,0.4875,0.4877,0.488,0.4882,0,0.3704,0.3766,0.3863,0.3951,0.398,0.4014,0.4071,0.4024,0.4097,0.425,0.4359,0.4379,0.4424,0.443,0.4328,0.4176,0.3953,0.4041,0.3633,0.3565,0.412,0.3994,0.3862,0.3862,0.3862,0.3862,0.3862,0.3862,0.3742,0.3835,0.3871,0.3914,0.3934,0.3854,0.3826,0.379,0.3835,0.3836,0.3814,0.3869,0.3951,0.3957,0.3743,0.3648,0.3333,0.3221,0.3277,0.3561,0.36,0.3637,0.3499,0.3266,0.3265,0.246,0.2454,0.245]},{"header":{"parameterUnit":"m.s-1","parameterCategory":2,"la1":30.2991,"la2":30.254,"lo1":-89.0895,"lo2":-89.0444,"dy":0.0017,"dx":0.0017,"nx":28,"ny":28,"refTime":"2025-03-24T21:00:00:Z","depth":"0","parameterNumber":3,"parameterNumberName":"V-component_of_CURRENTS"},"data":[0,0,0,0,0,0,0,0,0,0,0,0,0,0,0,0,0,0,0,0,0,0,0,0,0,0,0,0,0,0,0,0,0,0,0,0,0,0,0,0,0,0,0,0,0,0,0,0,0,0,0,0,0,0,0,0,0,0,-0.0844,-0.0845,0,-0.089,-0.089,-0.089,-0.0969,-0.0971,-0.0973,-0.0975,-0.107,-0.1071,-0.1071,0,0,0,0,0,0,0,0,0,0,0,0,0,-0.0738,-0.0739,-0.0844,-0.0845,-0.0847,-0.089,-0.089,-0.089,-0.0969,-0.0971,-0.0974,-0.0976,-0.107,-0.1071,-0.1071,0,0,0,0,0,0,0,0,0,0,0,0,0,-0.0777,-0.074,-0.0844,-0.0897,-0.0902,-0.089,-0.089,-0.089,-0.0968,-0.0971,-0.0975,-0.0978,-0.107,-0.1071,-0.1071,-0.1012,0,0,-0.1074,-0.1074,0,0,0,0,0,0,0,0,-0.0775,-0.078,-0.0888,-0.0893,-0.0899,-0.0934,-0.0888,-0.0936,-0.0967,-0.0935,-0.0976,-0.0979,-0.1031,-0.1035,-0.1026,-0.1016,-0.102,-0.1074,-0.1074,-0.1075,-0.1075,0,0,0,0,0,0,0,-0.0772,-0.0778,-0.0855,-0.0889,-0.0896,-0.0888,-0.0898,-0.0896,-0.096,-0.0939,-0.0946,-0.0962,-0.1034,-0.1025,-0.1029,-0.1022,-0.1074,-0.1074,-0.1075,-0.1075,-0.1221,-0.1224,0,0,0,0,0,0,-0.0782,-0.0776,-0.0854,-0.0857,-0.0852,-0.0889,-0.0898,-0.0913,-0.0959,-0.0971,-0.0959,-0.0965,-0.1022,-0.1028,-0.1033,-0.1107,-0.1075,-0.1075,-0.1076,-0.1217,-0.1221,-0.1225,0,0,0,0,0,0,-0.0779,-0.0788,-0.0852,-0.0823,-0.0832,-0.0889,-0.0904,-0.0913,-0.0914,-0.0976,-0.0988,-0.0953,-0.1025,-0.1032,-0.1085,-0.1107,-0.1076,-0.1076,-0.1213,-0.1219,-0.1223,-0.1165,0,0,0,0,0,0,-0.0776,-0.0787,-0.0783,-0.0824,-0.0834,-0.0841,-0.0902,-0.0912,-0.0921,-0.093,-0.0974,-0.0986,-0.1028,-0.1084,-0.1086,-0.1107,-0.1077,-0.1209,-0.1216,-0.1222,-0.1163,-0.1168,-0.1172,0,0,0,0,0,-0.0772,-0.0754,-0.0782,-0.0792,-0.0833,-0.084,-0.0842,-0.0889,-0.0918,-0.0902,-0.0979,-0.0985,-0.1128,-0.1085,-0.1087,-0.1109,-0.1206,-0.1214,-0.1221,-0.1161,-0.1167,-0.1172,0,0,0,0,0,0,-0.0697,-0.0762,-0.0794,-0.0796,-0.0818,-0.0857,-0.0843,-0.0874,-0.0911,-0.0928,-0.0992,-0.1009,-0.107,-0.1105,-0.1057,-0.1186,-0.118,-0.1189,-0.1135,-0.114,-0.1144,-0.1068,-0.1078,0,0,0,0,0,-0.0681,-0.0696,-0.0745,-0.0747,-0.0751,-0.0791,-0.0795,-0.0828,-0.0875,-0.0892,-0.094,-0.1019,-0.1096,-0.113,-0.1182,-0.1215,-0.1182,-0.1252,-0.1256,-0.1259,-0.1208,-0.1189,-0.1183,-0.125,-0.125,-0.125,0,0,-0.066,-0.0693,-0.0704,-0.0733,-0.0749,-0.0758,-0.0799,-0.08,-0.0831,-0.0895,-0.0942,-0.1009,-0.111,-0.1179,-0.1211,-0.1211,-0.1231,-0.1269,-0.1269,-0.1216,-0.1195,-0.1187,-0.118,-0.1255,-0.1254,-0.1254,0,0,-0.0602,-0.0642,-0.0623,-0.0644,-0.0671,-0.0711,-0.0711,-0.0749,-0.0787,-0.0836,-0.0925,-0.0996,-0.1089,-0.1169,-0.1227,-0.1279,-0.1246,-0.1331,-0.1284,-0.1268,-0.1258,-0.125,-0.1201,-0.1188,-0.1341,-0.1341,-0.1341,0,-0.0561,-0.0566,-0.0613,-0.0599,-0.0622,-0.0693,-0.0679,-0.0726,-0.0789,-0.0808,-0.0856,-0.0998,-0.1083,-0.1171,-0.123,-0.1277,-0.1249,-0.1244,-0.1261,-0.1252,-0.1244,-0.1196,-0.1183,-0.1339,-0.134,-0.134,-0.134,0,-0.0498,-0.0504,-0.0489,-0.0525,-0.0546,-0.0545,-0.063,-0.066,-0.0726,-0.0771,-0.0843,-0.0954,-0.1033,-0.111,-0.1192,-0.1215,-0.1206,-0.125,-0.1216,-0.1232,-0.1184,-0.117,-0.1337,-0.1337,-0.1338,-0.1338,0,0,-0.0401,-0.0436,-0.0433,-0.0441,-0.051,-0.052,-0.058,-0.0632,-0.0646,-0.0733,-0.0732,-0.0913,-0.0937,-0.1005,-0.1108,-0.1123,-0.1082,-0.1166,-0.1166,-0.1059,-0.1004,-0.0932,-0.0911,-0.1119,-0.1117,-0.1115,-0.099,0,-0.0332,-0.03,-0.0346,-0.0346,-0.0345,-0.0438,-0.0479,-0.0544,-0.0613,-0.0632,-0.074,-0.0787,-0.0916,-0.0946,-0.0982,-0.1052,-0.1045,-0.1109,-0.1053,-0.105,-0.0936,-0.0892,-0.0844,-0.0721,-0.0977,-0.0974,-0.0973,0,-0.025,-0.0253,-0.0224,-0.0264,-0.0265,-0.0286,-0.0352,-0.0394,-0.0461,-0.0498,-0.055,-0.0618,-0.0681,-0.0775,-0.0832,-0.0862,-0.0915,-0.0962,-0.0959,-0.0884,-0.0952,-0.0755,-0.0688,-0.089,-0.0953,-0.0954,-0.0956,0,-0.0171,-0.0168,-0.0149,-0.0167,-0.0221,-0.0228,-0.0267,-0.0339,-0.0344,-0.0393,-0.0368,-0.0455,-0.0459,-0.0545,-0.0667,-0.0741,-0.0671,-0.0791,-0.076,-0.0755,-0.0694,-0.0686,-0.0756,-0.0779,-0.078,-0.078,-0.078,0,-0.0096,-0.0084,-0.0106,-0.0106,-0.008,-0.0143,-0.012,-0.0176,-0.0184,-0.0136,-0.0275,-0.022,-0.0396,-0.0403,-0.0549,-0.057,-0.0574,-0.0692,-0.0702,-0.0679,-0.0673,-0.0832,-0.0969,-0.0775,-0.0776,-0.0777,-0.0778,0,-0.0035,-0.0039,-0.0025,-0.0049,-0.0043,-0.0035,-0.0027,-0.0004,-0.003,0.0041,0.0046,0.0003,0.0005,-0.0144,-0.0234,-0.0374,-0.0518,-0.0454,-0.0393,-0.0397,-0.059,-0.0726,-0.0731,-0.0807,-0.0398,-0.0395,-0.0393,0,-0.0009,0.001,0.0018,0.0051,0.0042,0.0061,0.009,0.0067,0.011,0.0193,0.026,0.0298,0.0367,0.0282,0.0064,-0.0084,-0.0348,-0.0187,-0.034,-0.0533,-0.0694,-0.081,-0.0885,-0.0248,-0.0245,-0.0242,-0.024,0,0.0024,0.0035,0.0047,0.0113,0.0156,0.0215,0.0263,0.0333,0.0356,0.0458,0.0639,0.073,0.0678,0.0601,0.0379,0.0204,-0.0314,-0.0134,-0.036,-0.0568,-0.067,-0.077,-0.0395,-0.0215,-0.0218,-0.022,-0.0221,-0.0222,0.0051,0.0072,0.0114,0.0178,0.0246,0.0368,0.0465,0.0561,0.0712,0.0936,0.0984,0.1236,0.1028,0.0764,0.048,-0.0025,-0.0094,-0.0232,-0.037,-0.0461,-0.0562,-0.0099,0.0072,0.0071,0.0071,0.007,0.0069,0,0.0093,0.0127,0.0183,0.0287,0.0402,0.0426,0.0588,0.0729,0.0968,0.1247,0.1472,0.1624,0.1295,0.0867,0.0199,-0.0201,-0.0422,-0.0459,-0.0667,-0.073,-0.0324,-0.035,-0.0231,-0.023,-0.023,-0.023,-0.023,-0.023,0.0124,0.0185,0.0212,0.0407,0.0511,0.0703,0.083,0.1044,0.1283,0.171,0.1994,0.2179,0.1861,0.0538,-0.0364,-0.058,-0.0946,-0.0956,-0.1152,-0.0961,-0.0954,-0.0947,-0.1006,-0.1026,-0.1027,-0.1511,-0.1516,-0.152]}],[{"header":{"parameterUnit":"m.s-1","parameterCategory":2,"la1":30.2991,"la2":30.254,"lo1":-89.0895,"lo2":-89.0444,"dy":0.0017,"dx":0.0017,"nx":28,"ny":28,"refTime":"2025-03-24T21:00:00:Z","depth":"2","parameterNumber":2,"parameterNumberName":"U-component_of_CURRENTS"},"data":[0,0,0,0,0,0,0,0,0,0,0,0,0,0,0,0,0,0,0,0,0,0,0,0,0,0,0,0,0,0,0,0,0,0,0,0,0,0,0,0,0,0,0,0,0,0,0,0,0,0,0,0,0,0,0,0,0,0,0.2605,0.2606,0,0.2716,0.2719,0.2721,0.2718,0.2715,0.2712,0.271,0.2652,0.2653,0.2654,0,0,0,0,0,0,0,0,0,0,0,0,0,0.2581,0.2582,0.2605,0.2606,0.2606,0.2716,0.2719,0.2721,0.2718,0.2715,0.2712,0.2709,0.2652,0.2653,0.2654,0,0,0,0,0,0,0,0,0,0,0,0,0,0.2643,0.2582,0.2605,0.2609,0.2609,0.2715,0.2719,0.2722,0.2719,0.2715,0.2711,0.2707,0.2651,0.2653,0.2654,0.2741,0,0,0.2658,0.2659,0,0,0,0,0,0,0,0,0.2639,0.2645,0.2608,0.2609,0.2609,0.2689,0.2689,0.2716,0.272,0.269,0.271,0.2705,0.2644,0.2646,0.2695,0.2738,0.2736,0.2658,0.2659,0.266,0.266,0,0,0,0,0,0,0,0.2635,0.2641,0.2661,0.2608,0.2609,0.2669,0.2673,0.2696,0.2694,0.2692,0.2689,0.2684,0.2644,0.2694,0.2692,0.2735,0.2658,0.2659,0.266,0.2661,0.276,0.2761,0,0,0,0,0,0,0.2592,0.2637,0.2658,0.2663,0.2601,0.2671,0.2677,0.2677,0.2697,0.2694,0.2687,0.2683,0.2693,0.2691,0.269,0.2737,0.266,0.2661,0.2662,0.2758,0.276,0.2762,0,0,0,0,0,0,0.2591,0.2593,0.2653,0.2643,0.2653,0.2673,0.2676,0.2681,0.2738,0.2693,0.2688,0.2736,0.269,0.2688,0.2688,0.2735,0.2661,0.2663,0.2756,0.2758,0.2761,0.2865,0,0,0,0,0,0,0.259,0.2593,0.2597,0.264,0.2651,0.2687,0.2678,0.2685,0.2734,0.2731,0.2734,0.2724,0.2687,0.2686,0.2689,0.2735,0.2664,0.2753,0.2757,0.276,0.2859,0.2871,0.2881,0,0,0,0,0,0.2589,0.2589,0.2597,0.26,0.265,0.2686,0.27,0.271,0.274,0.2755,0.2754,0.2724,0.2709,0.2689,0.2692,0.274,0.2752,0.2756,0.276,0.2854,0.2868,0.288,0,0,0,0,0,0,0.2571,0.259,0.2598,0.2602,0.263,0.2679,0.2711,0.274,0.2772,0.2771,0.2751,0.2741,0.2743,0.2741,0.2719,0.2777,0.2727,0.2732,0.2798,0.2811,0.2822,0.2811,0.2665,0,0,0,0,0,0.2574,0.2582,0.2608,0.2613,0.2641,0.2699,0.2728,0.2733,0.2756,0.2772,0.2767,0.2771,0.2774,0.2787,0.2763,0.2827,0.2838,0.2858,0.2869,0.2879,0.2872,0.2961,0.298,0.2775,0.2775,0.2775,0,0,0.2558,0.2577,0.2576,0.2611,0.266,0.2693,0.2711,0.275,0.2764,0.2758,0.2787,0.279,0.2788,0.2815,0.2824,0.2822,0.2943,0.2884,0.2892,0.288,0.2967,0.2987,0.3005,0.2778,0.2778,0.2777,0,0,0.2552,0.2574,0.2593,0.2625,0.2673,0.2702,0.2719,0.2775,0.2788,0.2816,0.2812,0.2848,0.2861,0.2878,0.2891,0.2964,0.2971,0.2972,0.3056,0.3143,0.3161,0.3177,0.3219,0.3237,0.3011,0.3012,0.3012,0,0.2538,0.2573,0.2602,0.2641,0.2666,0.2711,0.2745,0.2775,0.2806,0.2841,0.2807,0.2901,0.2887,0.2979,0.299,0.2989,0.303,0.3009,0.316,0.3176,0.319,0.3229,0.3248,0.3017,0.3017,0.3016,0.3016,0,0.2564,0.2591,0.2618,0.2675,0.2697,0.2739,0.2763,0.2795,0.2827,0.2866,0.2936,0.2949,0.302,0.3035,0.303,0.3155,0.3146,0.3139,0.313,0.3217,0.3252,0.327,0.3025,0.3023,0.3021,0.302,0,0,0.2528,0.262,0.2628,0.2666,0.2726,0.2747,0.2778,0.2843,0.2914,0.2937,0.3042,0.307,0.3132,0.3151,0.319,0.3272,0.3401,0.3268,0.327,0.3313,0.3587,0.3484,0.3494,0.3447,0.3451,0.3454,0.3571,0,0.2554,0.2611,0.2656,0.2711,0.2745,0.2797,0.2839,0.2885,0.2938,0.3039,0.3104,0.3196,0.3167,0.3246,0.3321,0.3376,0.3454,0.3368,0.349,0.3492,0.3396,0.3513,0.3229,0.3303,0.3589,0.3592,0.3594,0,0.257,0.2604,0.2661,0.2746,0.2778,0.2817,0.2917,0.2981,0.3112,0.3152,0.327,0.3327,0.346,0.3417,0.3568,0.3528,0.3561,0.3588,0.3594,0.3469,0.3424,0.3261,0.3325,0.3624,0.3621,0.3619,0.3617,0,0.2515,0.2608,0.2657,0.2684,0.2785,0.2834,0.2917,0.3027,0.308,0.3274,0.3327,0.349,0.3565,0.366,0.3697,0.3669,0.3838,0.3808,0.3739,0.373,0.349,0.3454,0.3909,0.3909,0.3909,0.3908,0.3908,0,0.2523,0.2554,0.2646,0.2672,0.2739,0.2843,0.296,0.3043,0.3184,0.3298,0.3425,0.3504,0.363,0.3726,0.3768,0.3808,0.3904,0.3764,0.3771,0.3516,0.3483,0.3751,0.3731,0.3913,0.3912,0.3911,0.391,0,0.2455,0.2528,0.2582,0.2692,0.2712,0.2786,0.2919,0.3038,0.3165,0.3312,0.3375,0.3516,0.3675,0.3766,0.3913,0.3866,0.3941,0.3924,0.3592,0.3556,0.3754,0.3738,0.3878,0.3876,0.3874,0.3872,0.3871,0,0.2435,0.2438,0.2545,0.2596,0.2658,0.2763,0.2859,0.2994,0.3102,0.3313,0.3385,0.3552,0.3641,0.3786,0.3798,0.3865,0.3937,0.3598,0.3477,0.3767,0.376,0.3747,0.3734,0.3204,0.3197,0.3192,0.3187,0,0.2366,0.2414,0.2497,0.2542,0.2641,0.2734,0.287,0.287,0.3107,0.3182,0.3312,0.3395,0.3559,0.3482,0.355,0.355,0.3571,0.3486,0.3926,0.3246,0.3139,0.3129,0.3137,0.3138,0.3143,0.3147,0.3149,0.3151,0.2345,0.2375,0.2467,0.2531,0.262,0.2682,0.2679,0.2813,0.287,0.2943,0.312,0.3145,0.3221,0.3162,0.3118,0.3093,0.3329,0.3177,0.3192,0.3213,0.3104,0.2999,0.295,0.2953,0.2956,0.2959,0.2962,0,0.2304,0.236,0.2427,0.2502,0.2534,0.2617,0.2676,0.2621,0.2606,0.275,0.2786,0.2586,0.2558,0.2665,0.2549,0.2561,0.2512,0.2467,0.2377,0.243,0.2476,0.2325,0.1967,0.1963,0.196,0.1957,0,0,0.2298,0.2346,0.238,0.2389,0.2431,0.2399,0.2386,0.229,0.2282,0.2198,0.2207,0.238,0.2545,0.2185,0.2178,0.2048,0.2206,0.1971,0.2778,0.2722,0.2762,0.2908,0.274,0,0,0,0,0]},{"header":{"parameterUnit":"m.s-1","parameterCategory":2,"la1":30.2991,"la2":30.254,"lo1":-89.0895,"lo2":-89.0444,"dy":0.0017,"dx":0.0017,"nx":28,"ny":28,"refTime":"2025-03-24T21:00:00:Z","depth":"2","parameterNumber":3,"parameterNumberName":"V-component_of_CURRENTS"},"data":[0,0,0,0,0,0,0,0,0,0,0,0,0,0,0,0,0,0,0,0,0,0,0,0,0,0,0,0,0,0,0,0,0,0,0,0,0,0,0,0,0,0,0,0,0,0,0,0,0,0,0,0,0,0,0,0,0,0,0.0195,0.0195,0,0.0119,0.0117,0.0116,0.0089,0.009,0.0091,0.0092,0.0023,0.0021,0.0018,0,0,0,0,0,0,0,0,0,0,0,0,0,0.0213,0.0213,0.0195,0.0195,0.0195,0.0119,0.0117,0.0115,0.0089,0.009,0.0091,0.0092,0.0024,0.0021,0.0018,0,0,0,0,0,0,0,0,0,0,0,0,0,0.0171,0.0213,0.0195,0.0178,0.0176,0.0119,0.0117,0.0115,0.0088,0.009,0.0091,0.0093,0.0025,0.0021,0.0017,-0.0037,0,0,0.0005,0.0003,0,0,0,0,0,0,0,0,0.0173,0.0169,0.0181,0.0179,0.0177,0.0121,0.0099,0.0067,0.0088,0.0114,0.0092,0.0093,0.0061,0.0054,0.0025,-0.004,-0.0043,0.0004,0.0002,0.0,-0.0001,0,0,0,0,0,0,0,0.0177,0.0172,0.0157,0.018,0.0178,0.0138,0.0134,0.0091,0.0074,0.0112,0.0111,0.0114,0.0059,0.0029,0.0024,-0.0044,0.0005,0.0001,-0.0002,-0.0003,-0.0079,-0.0078,0,0,0,0,0,0,0.0205,0.0175,0.016,0.0156,0.0187,0.0138,0.0132,0.0132,0.0075,0.0069,0.0113,0.0113,0.0036,0.0029,0.0021,0.003,0.0,-0.0004,-0.0006,-0.0079,-0.0078,-0.0078,0,0,0,0,0,0,0.0205,0.0204,0.0163,0.017,0.0163,0.0137,0.0135,0.013,0.0105,0.0077,0.0071,0.0097,0.0036,0.0027,0.0006,0.0024,-0.0005,-0.0009,-0.0079,-0.0079,-0.0078,-0.0002,0,0,0,0,0,0,0.0206,0.0204,0.0201,0.0172,0.0164,0.0154,0.0135,0.0127,0.0108,0.0108,0.0061,0.0056,0.0037,0.0012,0.0002,0.0018,-0.0012,-0.008,-0.0079,-0.0078,-0.0005,0.0001,0.0006,0,0,0,0,0,0.0207,0.0213,0.0201,0.0199,0.0164,0.0156,0.0147,0.0128,0.0106,0.0106,0.0077,0.0057,0.0011,0.0009,-0.0004,0.0012,-0.008,-0.0079,-0.0078,-0.0008,-0.0,0.0006,0,0,0,0,0,0,0.022,0.021,0.0197,0.0198,0.0188,0.0155,0.0146,0.0124,0.0093,0.0089,0.0052,0.0045,0.0044,0.0006,0.0005,-0.0006,-0.0035,-0.0036,0.0023,0.003,0.0035,0.0066,-0.0016,0,0,0,0,0,0.022,0.0222,0.0207,0.0208,0.0202,0.0165,0.0152,0.0143,0.0119,0.0105,0.0076,0.0045,0.0033,0.0016,-0.0,-0.0029,-0.0057,-0.0023,-0.0018,-0.0012,0.0004,-0.0038,-0.0034,-0.0075,-0.0075,-0.0075,0,0,0.0231,0.0221,0.0225,0.0211,0.019,0.0199,0.016,0.0152,0.0172,0.0101,0.0104,0.0067,0.0033,0.0028,0.0022,-0.0001,-0.0014,-0.0011,-0.0006,0.0008,-0.0036,-0.0032,-0.0029,-0.0074,-0.0074,-0.0074,0,0,0.0256,0.0237,0.0247,0.0243,0.0229,0.0216,0.0218,0.0189,0.0189,0.0181,0.0149,0.0122,0.0084,0.0069,0.0056,0.0074,0.0028,0.0063,0.0103,0.0062,0.0066,0.0068,0.0046,0.0046,0.0053,0.0054,0.0054,0,0.0263,0.0276,0.0249,0.0259,0.0274,0.0231,0.026,0.0248,0.0222,0.0229,0.0205,0.0148,0.0114,0.0109,0.0121,0.009,0.0059,0.0081,0.0071,0.0073,0.0074,0.0051,0.0049,0.0057,0.0057,0.0057,0.0056,0,0.0299,0.031,0.0316,0.0323,0.0334,0.0348,0.0351,0.0352,0.0337,0.0325,0.0318,0.0253,0.0222,0.0201,0.0166,0.0157,0.0131,0.0094,0.0057,0.0083,0.0056,0.0054,0.0063,0.0061,0.006,0.0059,0,0,0.0316,0.0338,0.034,0.0372,0.0375,0.0399,0.0433,0.0458,0.0484,0.0439,0.046,0.0408,0.035,0.033,0.0264,0.0215,0.0193,0.0157,0.0153,0.0143,0.0112,0.0083,0.0077,0.0143,0.0143,0.0143,0.0093,0,0.035,0.0407,0.0405,0.0475,0.0512,0.0507,0.0557,0.0577,0.0566,0.0571,0.0502,0.0489,0.0408,0.0377,0.0321,0.0237,0.0189,0.0212,0.0082,0.0079,0.0056,0.0074,0.0083,0.0038,0.009,0.009,0.009,0,0.0383,0.0426,0.0501,0.0585,0.0601,0.0634,0.0706,0.0744,0.074,0.0727,0.0675,0.061,0.0548,0.0462,0.0331,0.0346,0.0242,0.0161,0.0156,0.0104,0.0046,0.0017,0.0031,0.0085,0.0085,0.0086,0.0086,0,0.0431,0.0497,0.057,0.0593,0.0669,0.0711,0.0758,0.0785,0.0847,0.0808,0.081,0.0718,0.0681,0.0538,0.0376,0.0348,0.0227,0.0168,0.0046,0.0044,0.0016,0.0011,0.007,0.0071,0.0071,0.0071,0.0071,0,0.0473,0.0535,0.0598,0.0637,0.0754,0.0783,0.0889,0.0904,0.0947,0.1015,0.0884,0.0892,0.0695,0.0596,0.0425,0.0247,0.0266,0.0069,0.0029,0.0043,0.0041,0.0049,0.0047,0.0069,0.0069,0.007,0.007,0,0.0513,0.0544,0.064,0.0732,0.0774,0.086,0.0999,0.1069,0.1074,0.1147,0.1139,0.1051,0.0911,0.0706,0.0494,0.033,0.0146,0.007,0.0111,0.0076,-0.0024,-0.0022,-0.0068,-0.0069,-0.007,-0.0071,-0.0072,0,0.054,0.0594,0.0711,0.0784,0.0825,0.0957,0.1054,0.1129,0.1207,0.1248,0.1287,0.1178,0.111,0.0793,0.0483,0.019,0.015,0.0003,-0.0057,-0.0004,-0.0038,-0.0034,-0.003,-0.0061,-0.0062,-0.0062,-0.0063,0,0.0619,0.0648,0.0728,0.0871,0.0976,0.1113,0.1246,0.135,0.1434,0.147,0.1517,0.1467,0.1152,0.0853,0.0445,0.0241,0.0048,-0.0019,0.0029,-0.0028,-0.0002,-0.0035,-0.003,-0.0068,-0.0067,-0.0067,-0.0067,-0.0066,0.0677,0.0748,0.0849,0.0985,0.1103,0.1255,0.1384,0.1513,0.166,0.1731,0.1686,0.158,0.1252,0.0706,0.0372,0.0008,0.0013,-0.0127,-0.0123,-0.0119,-0.011,-0.0088,-0.0167,-0.0167,-0.0167,-0.0167,-0.0167,0,0.0772,0.0848,0.0971,0.1126,0.1249,0.1298,0.1503,0.1616,0.178,0.1808,0.1815,0.1464,0.1122,0.0745,0.0194,-0.0123,-0.0145,-0.0216,-0.0178,-0.0171,-0.0166,-0.0158,-0.0228,-0.0229,-0.0229,-0.023,0,0,0.0827,0.0959,0.1015,0.1226,0.1325,0.1495,0.1612,0.1758,0.1829,0.1852,0.1771,0.1657,0.1203,0.0801,0.0376,0.007,0.0024,0.0011,0.0089,0.019,0.02,-0.0091,-0.0069,0,0,0,0,0]}],[{"header":{"parameterUnit":"m.s-1","parameterCategory":2,"la1":30.2991,"la2":30.254,"lo1":-89.0895,"lo2":-89.0444,"dy":0.0017,"dx":0.0017,"nx":28,"ny":28,"refTime":"2025-03-24T21:00:00:Z","depth":"4","parameterNumber":2,"parameterNumberName":"U-component_of_CURRENTS"},"data":[0,0,0,0,0,0,0,0,0,0,0,0,0,0,0,0,0,0,0,0,0,0,0,0,0,0,0,0,0,0,0,0,0,0,0,0,0,0,0,0,0,0,0,0,0,0,0,0,0,0,0,0,0,0,0,0,0,0,0.1354,0.1354,0,0.1367,0.1367,0.1367,0.1397,0.1398,0.1398,0.1399,0.1477,0.1479,0.148,0,0,0,0,0,0,0,0,0,0,0,0,0,0.1321,0.1321,0.1354,0.1354,0.1354,0.1367,0.1367,0.1367,0.1397,0.1398,0.1399,0.1399,0.1477,0.1478,0.148,0,0,0,0,0,0,0,0,0,0,0,0,0,0.1333,0.1322,0.1354,0.1372,0.1374,0.1367,0.1367,0.1367,0.1396,0.1398,0.1399,0.14,0.1476,0.1478,0.148,0.1468,0,0,0.1486,0.1487,0,0,0,0,0,0,0,0,0.1332,0.1334,0.1369,0.1371,0.1373,0.1383,0.1384,0.1405,0.1396,0.1386,0.1399,0.1401,0.1452,0.1456,0.1452,0.1472,0.1475,0.1487,0.1488,0.1489,0.1489,0,0,0,0,0,0,0,0.1331,0.1333,0.1357,0.1369,0.1372,0.1369,0.1372,0.1387,0.1412,0.1387,0.1389,0.1394,0.1454,0.145,0.1455,0.1477,0.1487,0.1488,0.149,0.149,0.1599,0.16,0,0,0,0,0,0,0.1334,0.1332,0.1356,0.1357,0.1358,0.1369,0.1372,0.1377,0.141,0.1416,0.1393,0.1395,0.1446,0.1452,0.1458,0.1539,0.1489,0.149,0.1492,0.1597,0.1599,0.1601,0,0,0,0,0,0,0.1333,0.1336,0.1356,0.1347,0.1349,0.1368,0.1373,0.1377,0.141,0.1414,0.1422,0.1428,0.1447,0.1455,0.1505,0.1539,0.1491,0.1493,0.1595,0.1598,0.16,0.1642,0,0,0,0,0,0,0.1332,0.1336,0.1358,0.1347,0.135,0.1376,0.1373,0.1376,0.141,0.1414,0.1446,0.1452,0.1449,0.1502,0.1507,0.1541,0.1495,0.1593,0.1596,0.1599,0.1638,0.1645,0.1651,0,0,0,0,0,0.1331,0.1347,0.1358,0.1362,0.1374,0.1377,0.1379,0.1394,0.1411,0.1428,0.1455,0.1453,0.1526,0.1505,0.151,0.1545,0.1591,0.1595,0.1599,0.1635,0.1644,0.1651,0,0,0,0,0,0,0.1343,0.1351,0.1364,0.1383,0.1394,0.1384,0.1405,0.1415,0.1447,0.1465,0.1471,0.1479,0.1538,0.1537,0.1514,0.1587,0.156,0.1565,0.1586,0.1594,0.1601,0.1622,0.1496,0,0,0,0,0,0.1356,0.1372,0.1378,0.1396,0.1407,0.1415,0.1426,0.1437,0.1454,0.147,0.1492,0.1521,0.155,0.157,0.1593,0.1629,0.1643,0.1657,0.1664,0.1669,0.1692,0.1754,0.1769,0.1613,0.1613,0.1613,0,0,0.1361,0.1373,0.1381,0.1401,0.1412,0.1425,0.1425,0.1451,0.1468,0.1474,0.1521,0.155,0.1567,0.161,0.1636,0.1618,0.1715,0.1674,0.1679,0.1699,0.176,0.1775,0.1788,0.1616,0.1615,0.1615,0,0,0.1372,0.1398,0.1415,0.1426,0.1454,0.1457,0.1475,0.1491,0.1511,0.1556,0.1567,0.1623,0.166,0.1678,0.1691,0.1751,0.1753,0.1759,0.1806,0.1865,0.1879,0.1891,0.1898,0.1911,0.1757,0.1757,0.1757,0,0.1387,0.1397,0.1421,0.1437,0.1446,0.1477,0.1489,0.151,0.1543,0.1576,0.1586,0.1678,0.1694,0.1748,0.1771,0.1768,0.1787,0.1769,0.1874,0.1887,0.1898,0.1903,0.1917,0.1759,0.1759,0.1759,0.1758,0,0.1393,0.1414,0.1425,0.1455,0.1475,0.1489,0.1516,0.1563,0.1604,0.1632,0.1719,0.1747,0.1809,0.1817,0.1816,0.1902,0.1882,0.1878,0.1852,0.1917,0.1917,0.193,0.1763,0.1762,0.1761,0.176,0,0,0.1388,0.1422,0.143,0.1437,0.1481,0.1488,0.1547,0.1598,0.1659,0.1715,0.1787,0.1849,0.1895,0.1914,0.1922,0.1972,0.2057,0.1968,0.197,0.1971,0.2164,0.204,0.2041,0.2078,0.2082,0.2084,0.212,0,0.1386,0.1405,0.1428,0.1448,0.1453,0.1507,0.1552,0.1617,0.1695,0.178,0.1842,0.1924,0.1917,0.1971,0.2019,0.2064,0.21,0.2046,0.2106,0.2107,0.1987,0.2056,0.2095,0.2129,0.2132,0.2134,0.2136,0,0.1377,0.1389,0.1408,0.1436,0.1448,0.1479,0.1579,0.1625,0.1761,0.1835,0.1944,0.2005,0.21,0.2085,0.219,0.2162,0.2176,0.2192,0.2194,0.208,0.2009,0.206,0.216,0.2158,0.2156,0.2154,0.2153,0,0.1337,0.1367,0.1379,0.1388,0.1442,0.1482,0.1527,0.1658,0.1724,0.1894,0.199,0.2095,0.2178,0.223,0.2276,0.2257,0.2372,0.234,0.2227,0.2216,0.2296,0.2283,0.2414,0.2414,0.2414,0.2414,0.2413,0,0.13,0.1305,0.1368,0.137,0.1414,0.1461,0.1551,0.1639,0.1776,0.1876,0.2018,0.2112,0.2233,0.2308,0.2314,0.2311,0.2404,0.2255,0.2235,0.2306,0.2294,0.2302,0.2289,0.2415,0.2415,0.2414,0.2414,0,0.1237,0.1282,0.1296,0.1362,0.1397,0.1431,0.1549,0.1612,0.1771,0.1912,0.1977,0.2161,0.2276,0.2343,0.2433,0.2357,0.2364,0.2329,0.2387,0.2366,0.215,0.2138,0.2212,0.2208,0.2205,0.2202,0.22,0,0.1195,0.12,0.1288,0.1319,0.1352,0.1423,0.1477,0.161,0.1687,0.1922,0.1973,0.2156,0.2262,0.2271,0.2351,0.2351,0.2321,0.2285,0.2235,0.2165,0.2139,0.2132,0.2125,0.2195,0.2194,0.2194,0.2193,0,0.1103,0.1158,0.1177,0.126,0.1318,0.1362,0.1449,0.1493,0.166,0.1828,0.1948,0.2025,0.2144,0.2205,0.2225,0.2215,0.2294,0.2252,0.2258,0.221,0.2146,0.2121,0.2118,0.2182,0.2183,0.2184,0.2185,0,0.1048,0.1049,0.1112,0.1171,0.1241,0.1263,0.1323,0.1402,0.1492,0.1749,0.1783,0.197,0.2129,0.2135,0.215,0.2145,0.2112,0.202,0.2038,0.205,0.1984,0.1878,0.1834,0,0,0,0,0,0.0977,0.0972,0.1015,0.1069,0.113,0.1178,0.1284,0.135,0.1531,0.1573,0.1673,0.1781,0.1864,0.195,0.1914,0.2064,0.2099,0.201,0.1996,0.2122,0.2134,0.2072,0,0,0,0,0,0,0.0934,0.0957,0.0976,0.0969,0.099,0.1042,0.11,0.1217,0.1252,0.1454,0.151,0.1672,0.1773,0.1875,0.1884,0.1907,0.1858,0.2123,0.2118,0.2115,0.2126,0.2136,0.2077,0,0,0,0,0]},{"header":{"parameterUnit":"m.s-1","parameterCategory":2,"la1":30.2991,"la2":30.254,"lo1":-89.0895,"lo2":-89.0444,"dy":0.0017,"dx":0.0017,"nx":28,"ny":28,"refTime":"2025-03-24T21:00:00:Z","depth":"4","parameterNumber":3,"parameterNumberName":"V-component_of_CURRENTS"},"data":[0,0,0,0,0,0,0,0,0,0,0,0,0,0,0,0,0,0,0,0,0,0,0,0,0,0,0,0,0,0,0,0,0,0,0,0,0,0,0,0,0,0,0,0,0,0,0,0,0,0,0,0,0,0,0,0,0,0,0.0276,0.0276,0,0.027,0.0269,0.0269,0.026,0.026,0.0259,0.0259,0.0199,0.0198,0.0196,0,0,0,0,0,0,0,0,0,0,0,0,0,0.0274,0.0274,0.0276,0.0276,0.0276,0.027,0.0269,0.0269,0.026,0.026,0.0259,0.0259,0.02,0.0198,0.0196,0,0,0,0,0,0,0,0,0,0,0,0,0,0.0272,0.0274,0.0276,0.027,0.027,0.027,0.0269,0.0269,0.026,0.026,0.0259,0.0259,0.02,0.0198,0.0196,0.0187,0,0,0.0189,0.0188,0,0,0,0,0,0,0,0,0.0272,0.0272,0.0271,0.0271,0.027,0.0265,0.0247,0.0239,0.026,0.0264,0.0259,0.0259,0.0217,0.0213,0.0213,0.0185,0.0182,0.0189,0.0188,0.0187,0.0186,0,0,0,0,0,0,0,0.0272,0.0272,0.0273,0.0271,0.0271,0.0266,0.0266,0.0246,0.024,0.0263,0.0263,0.0262,0.0216,0.0215,0.0211,0.0181,0.0189,0.0187,0.0186,0.0185,0.0154,0.0155,0,0,0,0,0,0,0.0274,0.0272,0.0273,0.0273,0.0271,0.0266,0.0266,0.0267,0.0242,0.0238,0.0262,0.0262,0.0219,0.0214,0.0209,0.0215,0.0187,0.0185,0.0184,0.0154,0.0154,0.0155,0,0,0,0,0,0,0.0274,0.0274,0.0274,0.0273,0.0272,0.0267,0.0268,0.0267,0.027,0.0242,0.0237,0.0266,0.0219,0.0212,0.0194,0.0211,0.0184,0.0182,0.0153,0.0154,0.0154,0.0214,0,0,0,0,0,0,0.0274,0.0274,0.0276,0.0273,0.0272,0.0277,0.0268,0.0267,0.0269,0.0269,0.0243,0.0238,0.0218,0.0197,0.0191,0.0208,0.018,0.0152,0.0153,0.0154,0.0212,0.0217,0.0222,0,0,0,0,0,0.0274,0.0281,0.0276,0.0276,0.0275,0.0278,0.0277,0.0272,0.027,0.0273,0.0255,0.0239,0.0199,0.0195,0.0189,0.0205,0.0152,0.0153,0.0154,0.021,0.0216,0.0221,0,0,0,0,0,0,0.0278,0.028,0.0275,0.0281,0.0279,0.0276,0.0281,0.0277,0.0267,0.0265,0.0239,0.0232,0.0226,0.0204,0.02,0.0199,0.0175,0.0175,0.022,0.0225,0.023,0.024,0.0178,0,0,0,0,0,0.028,0.0288,0.0284,0.0289,0.0291,0.0286,0.0287,0.0284,0.0275,0.0272,0.0254,0.0236,0.0225,0.0215,0.0199,0.0193,0.0155,0.02,0.0205,0.0209,0.0213,0.0165,0.0166,0.0158,0.0158,0.0158,0,0,0.0284,0.0285,0.029,0.0291,0.0291,0.0302,0.0287,0.0293,0.0306,0.0265,0.0273,0.025,0.0227,0.0225,0.022,0.0208,0.0191,0.0211,0.0215,0.0215,0.0166,0.0167,0.0167,0.0159,0.0159,0.0159,0,0,0.0299,0.0297,0.031,0.0314,0.0316,0.0315,0.0319,0.0316,0.032,0.0321,0.03,0.0284,0.0267,0.0253,0.0246,0.0265,0.0219,0.0264,0.0295,0.0249,0.0249,0.0249,0.0201,0.0195,0.0266,0.0266,0.0266,0,0.0301,0.0321,0.0313,0.0327,0.034,0.0324,0.0346,0.0347,0.0338,0.0346,0.033,0.0307,0.0284,0.0284,0.0293,0.0277,0.0239,0.0277,0.0256,0.0254,0.0253,0.0203,0.0197,0.0269,0.0269,0.0268,0.0268,0,0.0328,0.0345,0.0355,0.0371,0.0379,0.0397,0.0398,0.0406,0.0406,0.0403,0.0402,0.0364,0.0351,0.0344,0.0325,0.0313,0.0286,0.0268,0.0241,0.0257,0.0204,0.0196,0.0273,0.0272,0.0271,0.027,0,0,0.0329,0.0369,0.0372,0.0397,0.041,0.0423,0.0447,0.0466,0.0487,0.0466,0.0481,0.0458,0.0431,0.042,0.0388,0.0346,0.0303,0.0307,0.0304,0.0261,0.0195,0.0171,0.016,0.0278,0.0277,0.0276,0.0161,0,0.0355,0.0404,0.0412,0.046,0.049,0.0493,0.0522,0.0533,0.0534,0.0539,0.0502,0.05,0.0464,0.0456,0.041,0.0333,0.0285,0.0335,0.0184,0.018,0.0158,0.0151,0.0273,0.0155,0.0153,0.0152,0.0151,0,0.0378,0.0414,0.0472,0.0527,0.054,0.0564,0.0609,0.0633,0.0634,0.0633,0.0613,0.0575,0.0528,0.0485,0.0358,0.039,0.03,0.023,0.0224,0.0176,0.0142,0.0135,0.0136,0.0137,0.0138,0.0139,0.014,0,0.0396,0.0453,0.051,0.0528,0.0582,0.0614,0.0645,0.0666,0.0705,0.0691,0.0699,0.0628,0.0598,0.0479,0.0342,0.0347,0.0181,0.0168,0.0058,0.0055,0.0085,0.0086,0.0066,0.0066,0.0066,0.0066,0.0067,0,0.0423,0.0465,0.0528,0.0559,0.0635,0.0656,0.0729,0.0744,0.0774,0.0816,0.0753,0.0744,0.0594,0.0485,0.035,0.018,0.0186,0.0059,0.0023,0.0112,0.0118,0.0078,0.0081,0.0062,0.0063,0.0064,0.0065,0,0.0435,0.0472,0.0545,0.0619,0.0647,0.0706,0.08,0.0853,0.0867,0.0911,0.0912,0.083,0.0684,0.0517,0.0311,0.0201,0.0033,-0.0032,0.0072,0.0045,-0.0066,-0.0058,-0.0162,-0.0164,-0.0165,-0.0166,-0.0167,0,0.0446,0.0487,0.0591,0.0647,0.0686,0.0778,0.0849,0.09,0.0956,0.0961,0.0979,0.0857,0.0776,0.0474,0.0286,0.0016,-0.0022,-0.0109,-0.0085,-0.0065,-0.009,-0.008,-0.007,-0.017,-0.017,-0.0171,-0.0171,0,0.0475,0.0516,0.0581,0.0698,0.0784,0.0886,0.0981,0.1019,0.1074,0.1082,0.1029,0.0876,0.0703,0.0469,0.0254,0.0063,-0.005,-0.0125,-0.0123,-0.0101,-0.0077,-0.0097,-0.0086,-0.0176,-0.0176,-0.0175,-0.0175,0,0.0499,0.0556,0.0649,0.075,0.0859,0.0959,0.1008,0.1064,0.1113,0.1105,0.1077,0.0893,0.0787,0.0491,0.0293,0.0101,0.0054,-0.0,-0.0005,-0.0002,0.0077,0.0135,0.0065,0,0,0,0,0,0.0523,0.0592,0.0692,0.081,0.0917,0.0982,0.1084,0.1123,0.1155,0.113,0.1108,0.0944,0.0648,0.0517,0.032,0.0253,0.0014,0.0014,-0.0053,-0.0206,-0.02,-0.0136,0,0,0,0,0,0,0.0541,0.0639,0.0696,0.0838,0.0918,0.1049,0.1111,0.1137,0.112,0.1111,0.0956,0.089,0.06,0.0759,0.0313,0.0255,0.0183,-0.012,-0.0124,-0.0209,-0.0204,-0.0199,-0.0131,0,0,0,0,0]}]]